Location: Olda
(45.8833°N, 9.5500°E)
Time: 14:33:27
(UTC+00:00)

Meteor 1-5 Rocket - Pass Details

Date: 03 March 2021
Orbit: 790 x 914 km, 81.2° (Epoch: 11 April)

Event Time Altitude Azimuth Distance (km) Brightness Sun altitude
Rises 18:30:09 0° 178° (S) 3,284 7.2 -14.5°
Reaches altitude 10° 18:32:31 10° 174° (S) 2,368 6.4 -14.9°
Maximum altitude 18:37:45 60° 96° (E) 931 4.1 -15.8°
Drops below altitude 10° 18:43:11 10° 18° (NNE) 2,450 6.5 -16.7°
Sets 18:45:39 0° 15° (NNE) 3,407 7.3 -17.2°
